Time,TemperatureF,DewpointF,PressureIn,WindDirection,WindDirectionDegrees,WindSpeedMPH,WindSpeedGustMPH,Humidity,HourlyPrecipIn,Conditions,Clouds,dailyrainin,SoftwareType,DateUTC
2013-05-21 00:02:00,64.2,58.8,27.91,North,360,0.0,0.0,83,0.00,,,0.00,WSDL version 420,2013-05-21 04:02:00,
2013-05-21 00:07:00,64.2,59.1,27.91,North,360,0.0,0.0,83,0.00,,,0.00,WSDL version 420,2013-05-21 04:07:00,
2013-05-21 00:12:00,64.2,59.1,27.91,North,360,0.0,0.0,83,0.00,,,0.00,WSDL version 420,2013-05-21 04:12:00,
2013-05-21 00:17:00,63.7,58.3,27.91,North,360,0.0,0.0,82,0.00,,,0.00,WSDL version 420,2013-05-21 04:17:00,
2013-05-21 00:22:00,63.4,57.9,27.91,North,360,0.0,0.0,82,0.00,,,0.00,WSDL version 420,2013-05-21 04:22:00,
2013-05-21 00:27:00,63.1,57.6,27.91,North,360,0.0,0.0,82,0.00,,,0.00,WSDL version 420,2013-05-21 04:27:00,
2013-05-21 00:32:00,63.3,57.9,27.91,North,360,0.0,0.0,83,0.00,,,0.00,WSDL version 420,2013-05-21 04:32:00,
2013-05-21 00:37:00,63.2,58.1,27.91,North,360,0.0,0.0,83,0.00,,,0.00,WSDL version 420,2013-05-21 04:37:00,
2013-05-21 00:42:00,63.0,57.8,27.91,North,360,0.0,0.0,83,0.00,,,0.00,WSDL version 420,2013-05-21 04:42:00,
2013-05-21 00:47:00,63.2,58.1,27.91,North,360,0.0,0.0,83,0.00,,,0.00,WSDL version 420,2013-05-21 04:47:00,
2013-05-21 00:52:00,63.3,58.2,27.91,NNE,23,0.0,0.0,83,0.00,,,0.00,WSDL version 420,2013-05-21 04:52:00,
2013-05-21 00:57:00,63.2,58.1,27.91,NNW,338,0.0,0.0,83,0.00,,,0.00,WSDL version 420,2013-05-21 04:57:00,
2013-05-21 01:02:00,62.9,57.7,27.91,NNE,23,0.0,1.1,83,0.00,,,0.00,WSDL version 420,2013-05-21 05:02:00,
2013-05-21 01:07:00,63.0,57.8,27.91,NNE,15,0.0,1.1,83,0.00,,,0.00,WSDL version 420,2013-05-21 05:07:00,
2013-05-21 01:12:00,62.9,57.8,27.91,NNE,15,1.6,2.5,83,0.00,,,0.00,WSDL version 420,2013-05-21 05:12:00,
2013-05-21 01:17:00,62.5,57.2,27.91,NE,38,1.0,2.5,83,0.00,,,0.00,WSDL version 420,2013-05-21 05:17:00,
2013-05-21 01:22:00,62.3,57.2,27.91,NNE,23,1.0,2.9,83,0.00,,,0.00,WSDL version 420,2013-05-21 05:22:00,
2013-05-21 01:27:00,61.8,56.7,27.91,NE,38,2.2,2.9,83,0.00,,,0.00,WSDL version 420,2013-05-21 05:27:00,
2013-05-21 01:32:00,61.8,56.7,27.91,NE,45,0.0,2.7,83,0.00,,,0.00,WSDL version 420,2013-05-21 05:32:00,
2013-05-21 01:37:00,62.0,56.9,27.91,NE,45,0.0,0.0,83,0.00,,,0.00,WSDL version 420,2013-05-21 05:37:00,
2013-05-21 01:42:00,62.0,57.0,27.91,NE,45,0.0,0.0,84,0.00,,,0.00,WSDL version 420,2013-05-21 05:42:00,
2013-05-21 01:47:00,62.0,57.3,27.88,NE,45,0.0,0.0,84,0.00,,,0.00,WSDL version 420,2013-05-21 05:47:00,
2013-05-21 01:52:00,62.1,57.3,27.88,NE,45,0.0,0.0,84,0.00,,,0.00,WSDL version 420,2013-05-21 05:52:00,
2013-05-21 01:57:00,62.2,57.4,27.88,NE,45,0.0,0.0,84,0.00,,,0.00,WSDL version 420,2013-05-21 05:57:00,
2013-05-21 02:02:00,62.2,57.4,27.88,NE,45,0.0,0.0,84,0.00,,,0.00,WSDL version 420,2013-05-21 06:02:00,
2013-05-21 02:07:00,62.0,57.2,27.88,NE,45,0.0,0.0,84,0.00,,,0.00,WSDL version 420,2013-05-21 06:07:00,
2013-05-21 02:12:00,61.8,57.1,27.88,NE,45,0.0,0.0,84,0.00,,,0.00,WSDL version 420,2013-05-21 06:12:00,
2013-05-21 02:17:00,61.7,57.0,27.88,NE,45,0.0,0.0,84,0.00,,,0.00,WSDL version 420,2013-05-21 06:17:00,
2013-05-21 02:22:00,61.7,57.0,27.88,NE,45,0.0,0.0,84,0.00,,,0.00,WSDL version 420,2013-05-21 06:22:00,
2013-05-21 02:27:00,61.5,56.5,27.88,NE,45,0.0,0.0,83,0.00,,,0.00,WSDL version 420,2013-05-21 06:27:00,
2013-05-21 02:32:00,61.2,56.1,27.91,NE,45,0.0,0.0,83,0.00,,,0.00,WSDL version 420,2013-05-21 06:32:00,
2013-05-21 02:37:00,61.2,56.1,27.91,NE,45,0.0,0.0,83,0.00,,,0.00,WSDL version 420,2013-05-21 06:37:00,
2013-05-21 02:42:00,61.0,56.0,27.91,NE,45,0.0,0.0,83,0.00,,,0.00,WSDL version 420,2013-05-21 06:42:00,
2013-05-21 02:47:00,60.7,55.8,27.91,NE,45,0.0,0.0,84,0.00,,,0.00,WSDL version 420,2013-05-21 06:47:00,
2013-05-21 02:52:00,60.6,55.9,27.91,NE,45,0.0,0.0,84,0.00,,,0.00,WSDL version 420,2013-05-21 06:52:00,
2013-05-21 02:57:00,60.8,56.0,27.91,NE,45,0.0,0.0,84,0.00,,,0.00,WSDL version 420,2013-05-21 06:57:00,
2013-05-21 03:02:00,60.8,56.1,27.91,NE,45,0.0,0.0,84,0.00,,,0.00,WSDL version 420,2013-05-21 07:02:00,
2013-05-21 03:07:00,60.6,55.9,27.91,NE,45,0.0,0.0,84,0.00,,,0.00,WSDL version 420,2013-05-21 07:07:00,
2013-05-21 03:12:00,60.7,56.0,27.91,NE,45,0.0,0.0,84,0.00,,,0.00,WSDL version 420,2013-05-21 07:12:00,
2013-05-21 03:17:00,60.6,55.9,27.91,NE,45,0.0,0.0,84,0.00,,,0.00,WSDL version 420,2013-05-21 07:17:00,
2013-05-21 03:22:00,60.7,56.0,27.91,NE,45,0.0,0.0,84,0.00,,,0.00,WSDL version 420,2013-05-21 07:22:00,
2013-05-21 03:27:00,60.7,56.0,27.91,NE,45,0.0,0.0,84,0.00,,,0.00,WSDL version 420,2013-05-21 07:27:00,
2013-05-21 03:32:00,60.7,56.0,27.91,NE,45,0.0,0.0,84,0.00,,,0.00,WSDL version 420,2013-05-21 07:32:00,
2013-05-21 03:37:00,60.3,55.6,27.91,NE,45,0.0,0.0,84,0.00,,,0.00,WSDL version 420,2013-05-21 07:37:00,
2013-05-21 03:42:00,60.3,55.6,27.91,NE,45,0.0,0.0,84,0.00,,,0.00,WSDL version 420,2013-05-21 07:42:00,
2013-05-21 03:47:00,60.0,55.3,27.91,NE,45,0.0,0.0,84,0.00,,,0.00,WSDL version 420,2013-05-21 07:47:00,
2013-05-21 03:52:00,59.9,55.2,27.91,NE,45,0.0,0.0,84,0.00,,,0.00,WSDL version 420,2013-05-21 07:52:00,
2013-05-21 03:57:00,60.1,55.4,27.91,NE,45,0.0,0.0,84,0.00,,,0.00,WSDL version 420,2013-05-21 07:57:00,
2013-05-21 04:02:00,60.0,55.3,27.91,NE,45,0.0,0.0,84,-99.99,,,-99.99,WSDL version 420,2013-05-21 08:02:00,
2013-05-21 04:07:00,59.7,55.0,27.91,NE,45,0.0,0.0,84,0.00,,,0.00,WSDL version 420,2013-05-21 08:07:00,
2013-05-21 04:12:00,59.8,55.1,27.91,NE,45,0.0,0.0,84,0.00,,,0.00,WSDL version 420,2013-05-21 08:12:00,
2013-05-21 04:17:00,60.0,55.5,27.91,NE,45,0.0,0.0,86,0.00,,,0.00,WSDL version 420,2013-05-21 08:17:00,
2013-05-21 04:22:00,60.1,55.7,27.91,NE,45,0.0,0.0,86,0.00,,,0.00,WSDL version 420,2013-05-21 08:22:00,
2013-05-21 04:27:00,60.1,55.7,27.91,NE,45,0.0,0.0,86,0.00,,,0.00,WSDL version 420,2013-05-21 08:27:00,
2013-05-21 04:32:00,59.8,55.5,27.91,NE,45,0.0,0.0,86,0.00,,,0.00,WSDL version 420,2013-05-21 08:32:00,
2013-05-21 04:37:00,59.8,55.5,27.91,NE,45,0.0,0.0,86,0.00,,,0.00,WSDL version 420,2013-05-21 08:37:00,
2013-05-21 04:42:00,60.0,55.6,27.91,NE,45,0.0,0.0,86,0.00,,,0.00,WSDL version 420,2013-05-21 08:42:00,
2013-05-21 04:47:00,59.7,55.4,27.91,NE,45,0.0,0.0,86,0.00,,,0.00,WSDL version 420,2013-05-21 08:47:00,
2013-05-21 04:52:00,59.7,55.4,27.91,NE,45,0.0,0.0,86,0.00,,,0.00,WSDL version 420,2013-05-21 08:52:00,
2013-05-21 04:57:00,59.7,55.4,27.91,NE,45,0.0,0.0,86,-99.99,,,-99.99,WSDL version 420,2013-05-21 08:57:00,
2013-05-21 05:02:00,59.7,55.4,27.91,NE,45,0.0,0.0,86,0.00,,,0.00,WSDL version 420,2013-05-21 09:02:00,
2013-05-21 05:07:00,59.6,55.4,27.91,NE,45,0.0,0.0,87,0.00,,,0.00,WSDL version 420,2013-05-21 09:07:00,
2013-05-21 05:12:00,59.8,55.8,27.91,NE,45,0.0,0.0,87,0.00,,,0.00,WSDL version 420,2013-05-21 09:12:00,
2013-05-21 05:17:00,60.0,56.0,27.91,NE,45,0.0,0.0,87,0.00,,,0.00,WSDL version 420,2013-05-21 09:17:00,
2013-05-21 05:22:00,60.1,56.2,27.91,NE,45,0.0,0.0,88,0.00,,,0.00,WSDL version 420,2013-05-21 09:22:00,
2013-05-21 05:27:00,60.1,56.4,27.91,NE,45,0.0,0.0,88,0.00,,,0.00,WSDL version 420,2013-05-21 09:27:00,
2013-05-21 05:32:00,60.1,56.4,27.91,NE,45,0.0,0.0,88,0.00,,,0.00,WSDL version 420,2013-05-21 09:32:00,
2013-05-21 05:37:00,60.1,56.5,27.91,NE,45,0.0,0.0,88,0.00,,,0.00,WSDL version 420,2013-05-21 09:37:00,
2013-05-21 05:42:00,60.1,56.4,27.91,NE,45,0.0,0.0,88,0.00,,,0.00,WSDL version 420,2013-05-21 09:42:00,
2013-05-21 05:47:00,60.1,56.4,27.91,NE,45,0.0,0.0,88,0.00,,,0.00,WSDL version 420,2013-05-21 09:47:00,
2013-05-21 05:52:00,60.0,56.3,27.91,NE,45,0.0,0.0,88,0.00,,,0.00,WSDL version 420,2013-05-21 09:52:00,
2013-05-21 05:57:00,60.0,56.3,27.91,NE,45,0.0,0.0,88,0.00,,,0.00,WSDL version 420,2013-05-21 09:57:00,
2013-05-21 06:02:00,60.0,56.4,27.91,NE,45,0.0,0.0,88,0.00,,,0.00,WSDL version 420,2013-05-21 10:02:00,
2013-05-21 06:07:00,60.0,56.3,27.91,NE,45,0.0,0.0,88,0.00,,,0.00,WSDL version 420,2013-05-21 10:07:00,
2013-05-21 06:12:00,60.0,56.3,27.91,NE,45,0.0,0.0,88,0.00,,,0.00,WSDL version 420,2013-05-21 10:12:00,
2013-05-21 06:17:00,59.9,56.3,27.91,NE,45,0.0,0.0,88,0.00,,,0.00,WSDL version 420,2013-05-21 10:17:00,
2013-05-21 06:22:00,59.8,56.2,27.91,NE,45,0.0,0.0,88,0.00,,,0.00,WSDL version 420,2013-05-21 10:22:00,
2013-05-21 06:27:00,59.7,56.1,27.91,NE,45,0.0,0.0,88,0.00,,,0.00,WSDL version 420,2013-05-21 10:27:00,
2013-05-21 06:32:00,59.5,55.9,27.91,NE,45,0.0,0.0,88,0.00,,,0.00,WSDL version 420,2013-05-21 10:32:00,
2013-05-21 06:37:00,59.5,55.7,27.91,NE,45,0.0,0.0,88,0.00,,,0.00,WSDL version 420,2013-05-21 10:37:00,
2013-05-21 06:42:00,59.7,56.1,27.91,NE,45,0.0,0.0,88,0.00,,,0.00,WSDL version 420,2013-05-21 10:42:00,
2013-05-21 06:47:00,59.8,56.2,27.91,NNE,23,0.0,0.0,88,0.00,,,0.00,WSDL version 420,2013-05-21 10:47:00,
2013-05-21 06:52:00,59.9,56.3,27.91,NNE,23,0.0,0.0,88,0.00,,,0.00,WSDL version 420,2013-05-21 10:52:00,
2013-05-21 06:57:00,59.9,56.3,27.91,NNE,23,0.0,0.0,88,0.00,,,0.00,WSDL version 420,2013-05-21 10:57:00,
2013-05-21 07:02:00,59.9,56.3,27.91,NNE,23,0.0,0.0,88,0.00,,,0.00,WSDL version 420,2013-05-21 11:02:00,
2013-05-21 07:07:00,59.9,56.3,27.91,NNE,23,0.0,0.0,88,0.00,,,0.00,WSDL version 420,2013-05-21 11:07:00,
2013-05-21 07:12:00,60.0,56.7,27.91,NNE,23,0.0,0.0,89,0.00,,,0.00,WSDL version 420,2013-05-21 11:12:00,
2013-05-21 07:17:00,60.1,56.8,27.91,NNE,23,0.0,0.0,89,0.00,,,0.00,WSDL version 420,2013-05-21 11:17:00,
2013-05-21 07:22:00,60.2,56.9,27.91,NNE,23,0.0,0.0,89,0.00,,,0.00,WSDL version 420,2013-05-21 11:22:00,
2013-05-21 07:27:00,60.3,57.0,27.91,NNE,23,0.0,0.0,89,0.00,,,0.00,WSDL version 420,2013-05-21 11:27:00,
2013-05-21 07:32:00,60.3,57.0,27.91,NNE,23,0.0,0.0,89,0.00,,,0.00,WSDL version 420,2013-05-21 11:32:00,
2013-05-21 07:37:00,60.3,57.0,27.91,NNE,23,0.0,0.0,89,0.00,,,0.00,WSDL version 420,2013-05-21 11:37:00,
2013-05-21 07:42:00,60.4,57.2,27.91,NE,45,0.0,0.0,89,0.00,,,0.00,WSDL version 420,2013-05-21 11:42:00,
2013-05-21 07:47:00,60.5,57.2,27.94,NE,45,0.0,0.0,89,0.00,,,0.00,WSDL version 420,2013-05-21 11:47:00,
2013-05-21 07:52:00,60.7,57.6,27.94,NE,45,0.0,0.0,89,0.00,,,0.00,WSDL version 420,2013-05-21 11:52:00,
2013-05-21 07:57:00,60.9,57.9,27.94,NE,39,0.0,0.0,90,0.00,,,0.00,WSDL version 420,2013-05-21 11:57:00,
2013-05-21 08:02:00,61.3,58.3,27.94,ENE,68,0.0,0.0,90,0.00,,,0.00,WSDL version 420,2013-05-21 12:02:00,
2013-05-21 08:07:00,61.4,58.4,27.94,NNE,23,0.0,0.0,90,0.00,,,0.00,WSDL version 420,2013-05-21 12:07:00,
2013-05-21 08:12:00,61.7,59.1,27.94,SSE,158,0.0,0.0,91,0.00,,,0.00,WSDL version 420,2013-05-21 12:12:00,
2013-05-21 08:17:00,61.7,59.1,27.94,North,360,0.0,0.0,91,0.00,,,0.00,WSDL version 420,2013-05-21 12:17:00,
2013-05-21 08:22:00,61.9,59.3,27.94,North,8,0.0,0.0,91,0.00,,,0.00,WSDL version 420,2013-05-21 12:22:00,
2013-05-21 08:27:00,61.9,59.3,27.94,North,353,0.0,0.0,91,0.00,,,0.00,WSDL version 420,2013-05-21 12:27:00,
2013-05-21 08:32:00,62.1,59.5,27.94,WSW,248,0.0,0.0,91,0.00,,,0.00,WSDL version 420,2013-05-21 12:32:00,
2013-05-21 08:42:00,62.7,60.0,27.94,West,270,0.0,0.0,91,0.00,,,0.00,WSDL version 420,2013-05-21 12:42:00,
2013-05-21 08:47:00,62.9,60.6,27.94,West,270,0.0,0.0,92,0.00,,,0.00,WSDL version 420,2013-05-21 12:47:00,
2013-05-21 08:52:00,63.3,61.0,27.94,WNW,293,0.0,0.0,92,0.00,,,0.00,WSDL version 420,2013-05-21 12:52:00,
2013-05-21 08:57:00,63.7,61.4,27.94,WNW,293,0.0,0.0,92,0.00,,,0.00,WSDL version 420,2013-05-21 12:57:00,
2013-05-21 09:02:00,64.1,62.0,27.94,WNW,293,0.0,0.0,93,0.00,,,0.00,WSDL version 420,2013-05-21 13:02:00,
2013-05-21 09:07:00,64.4,62.2,27.94,WNW,293,0.0,0.0,92,0.00,,,0.00,WSDL version 420,2013-05-21 13:07:00,
2013-05-21 09:12:00,64.8,62.5,27.94,WNW,293,0.0,0.0,92,0.00,,,0.00,WSDL version 420,2013-05-21 13:12:00,
2013-05-21 09:17:00,65.3,63.0,27.94,NW,315,0.0,0.0,92,0.00,,,0.00,WSDL version 420,2013-05-21 13:17:00,
2013-05-21 09:22:00,65.5,63.2,27.94,North,360,0.0,0.0,92,0.00,,,0.00,WSDL version 420,2013-05-21 13:22:00,
2013-05-21 09:27:00,65.8,63.5,27.94,North,360,0.0,0.0,92,0.00,,,0.00,WSDL version 420,2013-05-21 13:27:00,
2013-05-21 09:32:00,66.1,63.6,27.94,East,90,0.0,0.0,91,0.00,,,0.00,WSDL version 420,2013-05-21 13:32:00,
2013-05-21 09:37:00,66.4,63.7,27.94,ENE,68,0.0,0.0,91,0.00,,,0.00,WSDL version 420,2013-05-21 13:37:00,
2013-05-21 09:42:00,66.9,64.2,27.94,NNE,23,0.0,0.0,91,0.00,,,0.00,WSDL version 420,2013-05-21 13:42:00,
2013-05-21 09:47:00,67.2,64.5,27.94,NW,304,0.0,0.0,91,0.00,,,0.00,WSDL version 420,2013-05-21 13:47:00,
2013-05-21 09:52:00,67.6,64.5,27.94,WNW,293,0.0,0.0,90,0.00,,,0.00,WSDL version 420,2013-05-21 13:52:00,
2013-05-21 09:57:00,67.8,64.8,27.94,WNW,293,0.0,0.0,90,0.00,,,0.00,WSDL version 420,2013-05-21 13:57:00,
2013-05-21 10:02:00,68.4,65.0,27.94,WNW,293,0.0,0.0,89,0.00,,,0.00,WSDL version 420,2013-05-21 14:02:00,
2013-05-21 10:07:00,68.7,65.3,27.94,WNW,293,0.0,0.0,89,0.00,,,0.00,WSDL version 420,2013-05-21 14:07:00,
2013-05-21 10:12:00,68.8,65.0,27.94,SSE,165,0.0,0.0,88,-99.99,,,-99.99,WSDL version 420,2013-05-21 14:12:00,
2013-05-21 10:17:00,69.0,64.9,27.94,WNW,293,0.0,2.2,87,-99.99,,,-99.99,WSDL version 420,2013-05-21 14:17:00,
2013-05-21 10:22:00,69.3,65.1,27.94,North,356,0.8,2.2,87,-99.99,,,-99.99,WSDL version 420,2013-05-21 14:22:00,
2013-05-21 10:27:00,69.6,65.1,27.94,ENE,68,0.0,2.0,86,0.00,,,0.00,WSDL version 420,2013-05-21 14:27:00,
2013-05-21 10:32:00,69.9,65.2,27.94,SSW,203,0.0,0.0,84,-99.99,,,-99.99,WSDL version 420,2013-05-21 14:32:00,
2013-05-21 10:37:00,70.2,65.3,27.94,NW,315,0.0,2.0,84,0.00,,,0.00,WSDL version 420,2013-05-21 14:37:00,
2013-05-21 10:42:00,70.3,65.3,27.94,WNW,293,0.3,2.0,83,0.00,,,0.00,WSDL version 420,2013-05-21 14:42:00,
2013-05-21 10:47:00,70.5,65.0,27.94,WSW,248,0.0,0.9,82,0.00,,,0.00,WSDL version 420,2013-05-21 14:47:00,
2013-05-21 10:52:00,70.5,64.8,27.94,WNW,293,0.0,0.0,82,0.00,,,0.00,WSDL version 420,2013-05-21 14:52:00,
2013-05-21 10:57:00,70.7,65.0,27.94,NNW,345,0.4,1.1,82,0.00,,,0.00,WSDL version 420,2013-05-21 14:57:00,
2013-05-21 11:04:00,71.2,65.1,27.96,NNW,338,0.0,2.0,81,0.00,,,0.00,WSDL version 420,2013-05-21 15:04:00,
2013-05-21 11:09:00,71.4,65.3,27.96,NW,315,1.3,3.1,81,0.00,,,0.00,WSDL version 420,2013-05-21 15:09:00,
2013-05-21 11:14:00,71.6,65.1,27.96,WNW,293,0.0,3.1,80,0.00,,,0.00,WSDL version 420,2013-05-21 15:14:00,
2013-05-21 11:19:00,71.9,65.0,27.94,WNW,293,0.0,1.6,79,0.00,,,0.00,WSDL version 420,2013-05-21 15:19:00,
2013-05-21 11:24:00,72.0,65.0,27.94,NW,308,2.2,2.9,78,0.00,,,0.00,WSDL version 420,2013-05-21 15:24:00,
2013-05-21 11:29:00,72.2,64.8,27.94,NW,315,1.8,2.9,77,0.00,,,0.00,WSDL version 420,2013-05-21 15:29:00,
2013-05-21 11:34:00,72.8,65.2,27.94,NW,315,0.2,2.7,77,0.00,,,0.00,WSDL version 420,2013-05-21 15:34:00,
2013-05-21 11:39:00,73.0,65.4,27.94,NNW,338,1.6,1.6,77,0.00,,,0.00,WSDL version 420,2013-05-21 15:39:00,
2013-05-21 11:44:00,73.1,65.0,27.94,NW,323,1.7,2.0,75,0.00,,,0.00,WSDL version 420,2013-05-21 15:44:00,
2013-05-21 11:49:00,73.4,65.0,27.94,SW,225,0.6,2.9,75,0.00,,,0.00,WSDL version 420,2013-05-21 15:49:00,
2013-05-21 11:54:00,73.6,65.0,27.94,NE,53,2.2,2.9,74,0.00,,,0.00,WSDL version 420,2013-05-21 15:54:00,
2013-05-21 11:59:00,73.8,64.8,27.94,NNW,343,1.3,2.7,73,0.00,,,0.00,WSDL version 420,2013-05-21 15:59:00,
2013-05-21 12:05:00,73.8,64.6,27.94,SSE,158,0.7,2.2,73,0.00,,,0.00,WSDL version 420,2013-05-21 16:05:00,
2013-05-21 12:10:00,74.1,64.9,27.94,WSW,248,0.9,2.9,73,0.00,,,0.00,WSDL version 420,2013-05-21 16:10:00,
2013-05-21 12:15:00,74.4,64.6,27.94,NNE,23,1.2,2.9,71,0.00,,,0.00,WSDL version 420,2013-05-21 16:15:00,
2013-05-21 12:20:00,74.8,64.8,27.94,North,360,0.4,1.6,71,0.00,,,0.00,WSDL version 420,2013-05-21 16:20:00,
2013-05-21 12:25:00,74.9,64.6,27.94,NNW,338,0.4,2.2,70,0.00,,,0.00,WSDL version 420,2013-05-21 16:25:00,
2013-05-21 12:30:00,75.3,64.8,27.94,South,188,1.9,2.5,70,0.00,,,0.00,WSDL version 420,2013-05-21 16:30:00,
2013-05-21 12:35:00,75.5,64.6,27.94,NNW,343,1.3,2.5,69,0.00,,,0.00,WSDL version 420,2013-05-21 16:35:00,
2013-05-21 12:40:00,75.4,64.4,27.94,NNW,338,0.4,1.6,68,0.00,,,0.00,WSDL version 420,2013-05-21 16:40:00,
2013-05-21 12:45:00,75.6,64.3,27.94,North,11,0.3,1.1,68,0.00,,,0.00,WSDL version 420,2013-05-21 16:45:00,
2013-05-21 12:50:00,75.9,64.4,27.94,NE,56,1.7,2.7,67,0.00,,,0.00,WSDL version 420,2013-05-21 16:50:00,
2013-05-21 12:55:00,76.3,64.7,27.94,ENE,68,0.7,3.1,67,0.00,,,0.00,WSDL version 420,2013-05-21 16:55:00,
2013-05-21 13:00:00,76.9,65.2,27.94,North,360,1.0,3.1,67,0.00,,,0.00,WSDL version 420,2013-05-21 17:00:00,
2013-05-21 13:05:00,77.6,65.8,27.94,West,281,0.4,2.2,67,0.00,,,0.00,WSDL version 420,2013-05-21 17:05:00,
2013-05-21 13:10:00,77.2,65.1,27.91,NW,309,0.8,2.5,67,0.00,,,0.00,WSDL version 420,2013-05-21 17:10:00,
2013-05-21 13:15:00,76.8,64.6,27.91,SW,231,0.6,2.5,66,0.00,,,0.00,WSDL version 420,2013-05-21 17:15:00,
2013-05-21 13:20:00,76.9,64.7,27.91,NE,53,0.0,2.5,66,0.00,,,0.00,WSDL version 420,2013-05-21 17:20:00,
2013-05-21 13:25:00,77.2,64.7,27.91,WSW,240,0.0,2.5,65,0.00,,,0.00,WSDL version 420,2013-05-21 17:25:00,
2013-05-21 13:30:00,76.8,64.1,27.91,NNW,338,0.0,1.3,65,0.00,,,0.00,WSDL version 420,2013-05-21 17:30:00,
2013-05-21 13:35:00,77.2,64.5,27.91,WSW,240,0.9,2.7,65,0.00,,,0.00,WSDL version 420,2013-05-21 17:35:00,
2013-05-21 13:40:00,77.4,64.3,27.91,East,83,0.0,2.7,64,0.00,,,0.00,WSDL version 420,2013-05-21 17:40:00,
2013-05-21 13:45:00,78.0,65.3,27.91,ESE,113,1.2,1.3,65,0.00,,,0.00,WSDL version 420,2013-05-21 17:45:00,
2013-05-21 13:50:00,78.7,65.7,27.91,NE,45,0.3,1.3,64,0.00,,,0.00,WSDL version 420,2013-05-21 17:50:00,
2013-05-21 13:55:00,78.8,65.0,27.91,North,8,0.7,2.0,62,0.00,,,0.00,WSDL version 420,2013-05-21 17:55:00,
2013-05-21 14:00:00,79.2,65.4,27.91,South,173,0.9,2.5,63,0.00,,,0.00,WSDL version 420,2013-05-21 18:00:00,
2013-05-21 14:05:00,79.6,65.4,27.91,ESE,113,0.3,2.5,61,0.00,,,0.00,WSDL version 420,2013-05-21 18:05:00,
2013-05-21 14:10:00,79.6,64.9,27.91,North,6,0.0,2.9,61,0.00,,,0.00,WSDL version 420,2013-05-21 18:10:00,
2013-05-21 14:15:00,80.0,64.9,27.88,ENE,75,0.8,2.9,60,0.00,,,0.00,WSDL version 420,2013-05-21 18:15:00,
2013-05-21 14:20:00,80.4,65.1,27.88,SSW,203,0.3,1.6,59,0.00,,,0.00,WSDL version 420,2013-05-21 18:20:00,
2013-05-21 14:25:00,80.5,65.2,27.88,SE,143,0.0,1.6,59,0.00,,,0.00,WSDL version 420,2013-05-21 18:25:00,
2013-05-21 14:30:00,80.3,64.2,27.91,ESE,105,0.0,2.0,58,0.00,,,0.00,WSDL version 420,2013-05-21 18:30:00,
2013-05-21 14:35:00,80.4,63.8,27.91,NE,53,0.3,2.2,57,0.00,,,0.00,WSDL version 420,2013-05-21 18:35:00,
2013-05-21 14:40:00,80.6,64.0,27.91,North,360,0.0,2.2,57,0.00,,,0.00,WSDL version 420,2013-05-21 18:40:00,
2013-05-21 14:45:00,81.0,64.1,27.88,SSE,150,0.9,1.6,57,0.00,,,0.00,WSDL version 420,2013-05-21 18:45:00,
2013-05-21 14:55:00,81.5,63.3,27.88,NNE,30,1.0,2.0,53,0.00,,,0.00,WSDL version 420,2013-05-21 18:55:00,
2013-05-21 15:00:00,81.5,62.7,27.88,SE,128,1.3,2.0,53,0.00,,,0.00,WSDL version 420,2013-05-21 19:00:00,
2013-05-21 15:05:00,81.8,63.0,27.88,ESE,105,0.9,2.0,53,0.00,,,0.00,WSDL version 420,2013-05-21 19:05:00,
2013-05-21 15:10:00,82.0,62.7,27.88,SE,146,0.4,2.0,52,0.00,,,0.00,WSDL version 420,2013-05-21 19:10:00,
2013-05-21 15:15:00,82.0,62.7,27.88,NNE,15,0.0,2.0,52,0.00,,,0.00,WSDL version 420,2013-05-21 19:15:00,
2013-05-21 15:20:00,81.9,62.6,27.88,West,270,0.7,1.1,53,0.00,,,0.00,WSDL version 420,2013-05-21 19:20:00,
2013-05-21 15:25:00,82.3,62.8,27.88,WNW,293,0.0,1.6,51,0.00,,,0.00,WSDL version 420,2013-05-21 19:25:00,
2013-05-21 15:30:00,82.4,62.1,27.88,SE,128,0.0,1.6,50,0.00,,,0.00,WSDL version 420,2013-05-21 19:30:00,
2013-05-21 15:35:00,82.3,61.7,27.88,SW,225,0.4,1.3,50,0.00,,,0.00,WSDL version 420,2013-05-21 19:35:00,
2013-05-21 15:40:00,82.0,61.5,27.88,SSE,158,0.4,1.6,50,0.00,,,0.00,WSDL version 420,2013-05-21 19:40:00,
2013-05-21 15:45:00,82.0,60.9,27.88,ENE,73,0.3,1.6,49,0.00,,,0.00,WSDL version 420,2013-05-21 19:45:00,
2013-05-21 15:50:00,82.3,61.0,27.88,NE,45,0.9,2.0,48,0.00,,,0.00,WSDL version 420,2013-05-21 19:50:00,
2013-05-21 15:55:00,82.6,60.2,27.88,ESE,120,0.6,2.0,47,0.00,,,0.00,WSDL version 420,2013-05-21 19:55:00,
2013-05-21 16:00:00,83.1,61.2,27.88,SSW,210,0.0,2.0,48,0.00,,,0.00,WSDL version 420,2013-05-21 20:00:00,
2013-05-21 16:05:00,83.1,60.4,27.88,North,360,1.3,2.5,45,0.00,,,0.00,WSDL version 420,2013-05-21 20:05:00,
2013-05-21 16:10:00,83.1,59.5,27.88,West,281,0.2,2.5,44,0.00,,,0.00,WSDL version 420,2013-05-21 20:10:00,
2013-05-21 16:15:00,83.1,59.9,27.85,WSW,248,0.8,2.5,46,0.00,,,0.00,WSDL version 420,2013-05-21 20:15:00,
2013-05-21 16:20:00,83.2,59.5,27.85,ENE,75,2.8,4.3,44,0.00,,,0.00,WSDL version 420,2013-05-21 20:20:00,
2013-05-21 16:25:00,83.1,58.7,27.85,NNE,23,1.0,4.3,44,0.00,,,0.00,WSDL version 420,2013-05-21 20:25:00,
2013-05-21 16:35:00,83.2,59.7,27.85,ESE,120,0.3,2.7,45,0.00,,,0.00,WSDL version 420,2013-05-21 20:35:00,
2013-05-21 16:40:00,82.9,58.4,27.85,NE,56,1.1,2.9,43,0.00,,,0.00,WSDL version 420,2013-05-21 20:40:00,
2013-05-21 16:45:00,82.8,58.3,27.82,North,11,0.2,2.9,44,0.00,,,0.00,WSDL version 420,2013-05-21 20:45:00,
2013-05-21 16:50:00,83.2,58.4,27.82,NE,45,1.5,2.9,42,0.00,,,0.00,WSDL version 420,2013-05-21 20:50:00,
2013-05-21 16:55:00,83.4,58.1,27.82,NNE,23,0.0,2.9,42,0.00,,,0.00,WSDL version 420,2013-05-21 20:55:00,
2013-05-21 17:00:00,83.1,57.0,27.82,East,98,0.5,2.2,41,0.00,,,0.00,WSDL version 420,2013-05-21 21:00:00,
2013-05-21 17:05:00,83.2,57.6,27.82,SE,129,0.7,1.6,42,0.00,,,0.00,WSDL version 420,2013-05-21 21:05:00,
2013-05-21 17:10:00,83.5,57.8,27.82,South,169,0.0,1.1,42,0.00,,,0.00,WSDL version 420,2013-05-21 21:10:00,
2013-05-21 17:15:00,83.5,58.0,27.82,WSW,240,0.3,0.9,42,0.00,,,0.00,WSDL version 420,2013-05-21 21:15:00,
2013-05-21 17:20:00,83.4,57.4,27.82,NNE,23,0.3,2.2,41,0.00,,,0.00,WSDL version 420,2013-05-21 21:20:00,
2013-05-21 17:30:00,83.2,56.4,27.82,South,180,1.3,2.5,40,0.00,,,0.00,WSDL version 420,2013-05-21 21:30:00,
2013-05-21 17:35:00,83.2,56.4,27.82,SW,218,0.0,2.5,40,0.00,,,0.00,WSDL version 420,2013-05-21 21:35:00,
2013-05-21 17:40:00,83.3,55.8,27.82,SSE,152,0.3,1.6,39,0.00,,,0.00,WSDL version 420,2013-05-21 21:40:00,
2013-05-21 17:45:00,83.4,55.8,27.82,East,90,0.7,3.4,39,0.00,,,0.00,WSDL version 420,2013-05-21 21:45:00,
2013-05-21 17:50:00,83.1,55.4,27.82,SSE,158,0.4,3.4,39,0.00,,,0.00,WSDL version 420,2013-05-21 21:50:00,
2013-05-21 17:55:00,83.0,55.5,27.82,ESE,105,0.0,2.0,39,0.00,,,0.00,WSDL version 420,2013-05-21 21:55:00,
2013-05-21 18:00:00,82.9,55.5,27.82,NE,38,0.0,0.9,39,0.00,,,0.00,WSDL version 420,2013-05-21 22:00:00,
2013-05-21 18:05:00,82.9,55.6,27.82,NNW,338,1.2,2.5,40,0.00,,,0.00,WSDL version 420,2013-05-21 22:05:00,
2013-05-21 18:10:00,82.8,56.0,27.82,NNE,17,0.9,2.5,40,0.00,,,0.00,WSDL version 420,2013-05-21 22:10:00,
2013-05-21 18:15:00,82.6,55.7,27.82,South,180,0.7,2.2,40,0.00,,,0.00,WSDL version 420,2013-05-21 22:15:00,
2013-05-21 18:20:00,82.5,55.8,27.82,SSE,150,1.5,2.7,40,0.00,,,0.00,WSDL version 420,2013-05-21 22:20:00,
2013-05-21 18:25:00,82.3,56.3,27.82,East,90,0.6,3.1,41,0.00,,,0.00,WSDL version 420,2013-05-21 22:25:00,
2013-05-21 18:30:00,82.4,56.8,27.82,NE,45,1.3,3.1,41,0.00,,,0.00,WSDL version 420,2013-05-21 22:30:00,
2013-05-21 18:35:00,82.2,56.9,27.82,SSW,210,0.6,2.5,42,0.00,,,0.00,WSDL version 420,2013-05-21 22:35:00,
2013-05-21 18:40:00,82.0,56.0,27.82,NE,53,0.0,0.9,41,0.00,,,0.00,WSDL version 420,2013-05-21 22:40:00,
2013-05-21 18:45:00,81.9,56.4,27.82,NW,315,0.8,2.2,42,0.00,,,0.00,WSDL version 420,2013-05-21 22:45:00,
2013-05-21 18:50:00,81.8,56.5,27.82,NNE,15,0.0,2.5,42,0.00,,,0.00,WSDL version 420,2013-05-21 22:50:00,
2013-05-21 18:55:00,81.6,55.8,27.82,NE,45,0.0,2.9,41,0.00,,,0.00,WSDL version 420,2013-05-21 22:55:00,
2013-05-21 19:00:00,81.3,55.6,27.82,NNE,28,1.2,2.9,41,0.00,,,0.00,WSDL version 420,2013-05-21 23:00:00,
2013-05-21 19:05:00,81.2,55.3,27.82,NNE,28,1.5,2.9,41,0.00,,,0.00,WSDL version 420,2013-05-21 23:05:00,
2013-05-21 19:10:00,81.0,55.1,27.82,NE,38,0.8,2.5,41,0.00,,,0.00,WSDL version 420,2013-05-21 23:10:00,
2013-05-21 19:15:00,80.8,55.0,27.82,NNE,30,0.9,3.1,41,0.00,,,0.00,WSDL version 420,2013-05-21 23:15:00,
2013-05-21 19:20:00,80.5,54.2,27.82,NNE,23,0.0,3.1,40,0.00,,,0.00,WSDL version 420,2013-05-21 23:20:00,
2013-05-21 19:25:00,80.2,54.4,27.82,North,360,0.0,2.0,41,0.00,,,0.00,WSDL version 420,2013-05-21 23:25:00,
2013-05-21 19:30:00,79.9,55.2,27.82,NE,45,0.0,2.0,44,0.00,,,0.00,WSDL version 420,2013-05-21 23:30:00,
2013-05-21 19:35:00,79.3,55.3,27.82,NNE,23,0.0,0.0,43,0.00,,,0.00,WSDL version 420,2013-05-21 23:35:00,
2013-05-21 19:40:00,78.9,55.2,27.82,ENE,68,0.0,0.0,44,0.00,,,0.00,WSDL version 420,2013-05-21 23:40:00,
2013-05-21 19:45:00,78.5,55.2,27.82,North,8,0.4,1.3,44,0.00,,,0.00,WSDL version 420,2013-05-21 23:45:00,
2013-05-21 19:50:00,78.1,54.9,27.82,NNW,345,0.0,1.3,45,0.00,,,0.00,WSDL version 420,2013-05-21 23:50:00,
2013-05-21 19:55:00,77.7,55.1,27.82,NNE,23,0.0,0.9,46,0.00,,,0.00,WSDL version 420,2013-05-21 23:55:00,
2013-05-21 20:00:00,77.4,55.0,27.82,NNE,23,0.0,0.9,46,0.00,,,0.00,WSDL version 420,2013-05-22 00:00:00,
2013-05-21 20:05:00,77.0,55.2,27.82,NNE,23,0.0,0.9,48,0.00,,,0.00,WSDL version 420,2013-05-22 00:05:00,
2013-05-21 20:10:00,77.0,56.4,27.85,NNE,23,0.0,0.0,49,0.00,,,0.00,WSDL version 420,2013-05-22 00:10:00,
2013-05-21 20:15:00,76.8,57.1,27.85,NNE,23,0.0,0.0,51,0.00,,,0.00,WSDL version 420,2013-05-22 00:15:00,
2013-05-21 20:20:00,76.4,57.7,27.85,NNE,23,0.0,0.0,53,0.00,,,0.00,WSDL version 420,2013-05-22 00:20:00,
2013-05-21 20:25:00,76.0,57.7,27.85,NNE,23,0.0,0.0,53,0.00,,,0.00,WSDL version 420,2013-05-22 00:25:00,
2013-05-21 20:30:00,75.7,57.8,27.85,East,90,0.0,0.0,54,0.00,,,0.00,WSDL version 420,2013-05-22 00:30:00,
2013-05-21 20:35:00,75.5,57.5,27.85,NNE,15,0.0,0.0,54,0.00,,,0.00,WSDL version 420,2013-05-22 00:35:00,
2013-05-21 20:40:00,75.2,57.3,27.85,NNE,23,0.7,1.6,54,0.00,,,0.00,WSDL version 420,2013-05-22 00:40:00,
2013-05-21 20:45:00,74.9,57.7,27.85,NE,45,0.0,1.6,55,0.00,,,0.00,WSDL version 420,2013-05-22 00:45:00,
2013-05-21 20:55:00,74.8,58.3,27.85,NE,45,0.0,1.1,57,0.00,,,0.00,WSDL version 420,2013-05-22 00:55:00,
2013-05-21 21:00:00,74.7,58.4,27.85,NNE,23,0.0,0.0,57,0.00,,,0.00,WSDL version 420,2013-05-22 01:00:00,
2013-05-21 21:05:00,74.6,58.1,27.85,SSE,165,1.6,2.5,56,0.00,,,0.00,WSDL version 420,2013-05-22 01:05:00,
2013-05-21 21:10:00,74.3,57.4,27.85,West,281,0.7,2.5,55,0.00,,,0.00,WSDL version 420,2013-05-22 01:10:00,
2013-05-21 21:15:00,74.3,57.1,27.88,South,173,1.3,3.4,55,0.00,,,0.00,WSDL version 420,2013-05-22 01:15:00,
2013-05-21 21:20:00,73.5,56.5,27.88,SW,214,2.7,3.4,56,0.00,,,0.00,WSDL version 420,2013-05-22 01:20:00,
2013-05-21 21:25:00,70.8,55.1,27.88,NW,326,1.7,3.4,58,0.00,,,0.00,WSDL version 420,2013-05-22 01:25:00,
2013-05-21 21:30:00,68.8,54.9,27.91,SSW,203,3.4,4.0,63,0.04,,,0.04,WSDL version 420,2013-05-22 01:30:00,
2013-05-21 21:35:00,66.4,54.9,27.91,NNE,23,1.6,4.0,68,0.17,,,0.17,WSDL version 420,2013-05-22 01:35:00,
2013-05-21 21:40:00,65.3,54.6,27.91,NNE,23,1.6,1.6,69,0.33,,,0.33,WSDL version 420,2013-05-22 01:40:00,
2013-05-21 21:45:00,65.1,55.4,27.91,WSW,248,2.2,2.2,71,0.41,,,0.41,WSDL version 420,2013-05-22 01:45:00,
2013-05-21 21:50:00,64.9,55.7,27.91,South,191,1.7,2.2,72,0.46,,,0.46,WSDL version 420,2013-05-22 01:50:00,
2013-05-21 21:55:00,64.7,55.8,27.91,East,83,0.0,2.5,73,0.46,,,0.46,WSDL version 420,2013-05-22 01:55:00,
2013-05-21 22:00:00,64.7,56.0,27.94,South,173,0.0,2.5,74,0.50,,,0.50,WSDL version 420,2013-05-22 02:00:00,
2013-05-21 22:05:00,64.8,56.4,27.94,WNW,293,0.0,1.6,75,0.50,,,0.50,WSDL version 420,2013-05-22 02:05:00,
2013-05-21 22:10:00,64.6,56.7,27.94,NE,38,1.0,1.1,76,0.50,,,0.50,WSDL version 420,2013-05-22 02:10:00,
2013-05-21 22:15:00,64.6,56.9,27.94,ENE,68,0.3,1.3,76,0.50,,,0.50,WSDL version 420,2013-05-22 02:15:00,
2013-05-21 22:20:00,64.8,57.0,27.94,NE,41,0.0,1.3,76,0.50,,,0.50,WSDL version 420,2013-05-22 02:20:00,
2013-05-21 22:25:00,64.8,57.4,27.94,SE,128,0.7,1.3,77,0.50,,,0.50,WSDL version 420,2013-05-22 02:25:00,
2013-05-21 22:30:00,64.9,57.5,27.91,South,180,0.0,1.3,77,0.46,,,0.50,WSDL version 420,2013-05-22 02:30:00,
2013-05-21 22:35:00,64.7,57.5,27.91,East,90,0.0,0.9,78,0.33,,,0.50,WSDL version 420,2013-05-22 02:35:00,
2013-05-21 22:40:00,64.9,57.6,27.91,East,90,0.0,0.9,77,0.17,,,0.50,WSDL version 420,2013-05-22 02:40:00,
2013-05-21 22:45:00,64.8,57.7,27.91,East,90,0.0,0.0,78,0.09,,,0.50,WSDL version 420,2013-05-22 02:45:00,
2013-05-21 22:50:00,64.8,57.7,27.91,East,90,0.0,0.0,78,0.04,,,0.50,WSDL version 420,2013-05-22 02:50:00,
2013-05-21 22:55:00,65.1,58.1,27.91,East,90,0.0,0.0,78,0.04,,,0.50,WSDL version 420,2013-05-22 02:55:00,
2013-05-21 23:00:00,65.4,58.3,27.91,East,90,0.0,0.0,77,0.00,,,0.50,WSDL version 420,2013-05-22 03:00:00,
2013-05-21 23:05:00,65.7,58.3,27.91,East,90,0.0,0.0,77,0.00,,,0.50,WSDL version 420,2013-05-22 03:05:00,
2013-05-21 23:10:00,65.7,58.3,27.91,ENE,75,0.0,0.0,77,0.00,,,0.50,WSDL version 420,2013-05-22 03:10:00,
2013-05-21 23:15:00,65.5,57.7,27.91,West,259,0.4,1.6,76,0.00,,,0.50,WSDL version 420,2013-05-22 03:15:00,
2013-05-21 23:20:00,65.7,58.3,27.91,East,98,0.0,1.6,77,0.00,,,0.50,WSDL version 420,2013-05-22 03:20:00,
2013-05-21 23:25:00,65.7,57.9,27.91,SSE,158,0.0,2.0,76,0.00,,,0.50,WSDL version 420,2013-05-22 03:25:00,
2013-05-21 23:30:00,65.4,57.7,27.91,SE,129,0.0,2.0,76,0.00,,,0.50,WSDL version 420,2013-05-22 03:30:00,
2013-05-21 23:35:00,65.2,57.4,27.91,ESE,113,0.0,0.0,76,0.00,,,0.50,WSDL version 420,2013-05-22 03:35:00,
2013-05-21 23:40:00,65.5,57.8,27.91,ESE,113,0.0,0.0,77,0.00,,,0.50,WSDL version 420,2013-05-22 03:40:00,
2013-05-21 23:45:00,65.7,58.3,27.88,East,96,0.0,0.0,77,0.00,,,0.50,WSDL version 420,2013-05-22 03:45:00,
2013-05-21 23:50:00,65.7,57.9,27.88,ESE,113,0.0,0.0,76,0.00,,,0.50,WSDL version 420,2013-05-22 03:50:00,
2013-05-21 23:55:00,65.5,58.0,27.88,East,101,0.0,0.0,76,0.00,,,0.50,WSDL version 420,2013-05-22 03:55:00,